UGD444 HAAB-HUEN

Flight info

Callsign UGD444
Flight time N/A
Altitude 26000
Route ETGOM1A ETGOM UL432 IMVIP IMVIP1A
Aircraft A321/M-V/N

Departure

Time N/A
Airport Addis Ababa Bole International Airport (HAAB)

Arrival

Time 2026-05-06 09:25
Airport Entebbe International Airport (HUEN)
Time Latitude Longitude Altitude Speed Heading
2026-05-06 06:16 8.98247 38.79657 0 ft 0 kts 345°
2026-05-06 06:48 8.98241 38.79659 0 ft 3 kts 345°
2026-05-06 06:48 8.98225 38.79663 0 ft 3 kts 345°
2026-05-06 06:48 8.98208 38.79668 0 ft 3 kts 345°
2026-05-06 06:49 8.98192 38.79672 0 ft 3 kts 345°
2026-05-06 06:49 8.98174 38.79672 0 ft 3 kts 21°
2026-05-06 06:49 8.98163 38.79664 0 ft 0 kts 54°
2026-05-06 06:52 8.98163 38.79665 0 ft 0 kts 54°
2026-05-06 06:53 8.98166 38.79669 0 ft 1 kts 54°
2026-05-06 06:53 8.98171 38.79678 0 ft 2 kts 66°
2026-05-06 06:53 8.98175 38.79692 0 ft 3 kts 80°
2026-05-06 06:53 8.98175 38.79712 0 ft 4 kts 97°
2026-05-06 06:54 8.98168 38.79735 0 ft 4 kts 118°
2026-05-06 06:54 8.98149 38.79753 0 ft 4 kts 150°
2026-05-06 06:54 8.98125 38.79761 0 ft 4 kts 166°
2026-05-06 06:54 8.98100 38.79768 0 ft 4 kts 166°
2026-05-06 06:55 8.98073 38.79774 0 ft 4 kts 167°
2026-05-06 06:55 8.98047 38.79781 0 ft 4 kts 164°
2026-05-06 06:55 8.98022 38.79788 0 ft 4 kts 164°
2026-05-06 06:55 8.97997 38.79795 0 ft 4 kts 165°
2026-05-06 06:56 8.97975 38.79802 0 ft 4 kts 161°
2026-05-06 06:56 8.97954 38.79809 0 ft 3 kts 161°
2026-05-06 06:56 8.97936 38.79815 0 ft 3 kts 162°
2026-05-06 06:56 8.97917 38.79820 0 ft 3 kts 167°
2026-05-06 06:57 8.97897 38.79822 0 ft 3 kts 182°
2026-05-06 06:57 8.97877 38.79816 0 ft 4 kts 208°
2026-05-06 06:57 8.97860 38.79800 0 ft 4 kts 235°
2026-05-06 06:57 8.97848 38.79774 0 ft 5 kts 248°
2026-05-06 06:58 8.97837 38.79743 0 ft 6 kts 252°
2026-05-06 06:58 8.97827 38.79707 0 ft 6 kts 255°
2026-05-06 06:58 8.97817 38.79671 0 ft 6 kts 254°
2026-05-06 06:58 8.97806 38.79634 0 ft 6 kts 252°
2026-05-06 06:59 8.97795 38.79598 0 ft 6 kts 253°
2026-05-06 06:59 8.97784 38.79560 0 ft 6 kts 254°
2026-05-06 06:59 8.97774 38.79523 0 ft 6 kts 254°
2026-05-06 06:59 8.97763 38.79486 0 ft 7 kts 253°
2026-05-06 07:00 8.97751 38.79446 0 ft 7 kts 255°
2026-05-06 07:00 8.97740 38.79403 0 ft 8 kts 256°
2026-05-06 07:00 8.97727 38.79358 0 ft 8 kts 253°
2026-05-06 07:00 8.97712 38.79312 0 ft 8 kts 252°
2026-05-06 07:01 8.97699 38.79268 0 ft 8 kts 253°
2026-05-06 07:01 8.97687 38.79227 0 ft 7 kts 251°
2026-05-06 07:01 8.97676 38.79193 0 ft 6 kts 252°
2026-05-06 07:01 8.97668 38.79164 0 ft 5 kts 253°
2026-05-06 07:02 8.97660 38.79138 0 ft 4 kts 254°
2026-05-06 07:02 8.97654 38.79117 0 ft 3 kts 255°
2026-05-06 07:02 8.97650 38.79101 0 ft 3 kts 254°
2026-05-06 07:02 8.97646 38.79086 0 ft 3 kts 255°
2026-05-06 07:03 8.97641 38.79067 0 ft 4 kts 253°
2026-05-06 07:03 8.97632 38.79037 0 ft 6 kts 254°
2026-05-06 07:03 8.97621 38.78996 0 ft 8 kts 252°
2026-05-06 07:03 8.97603 38.78947 0 ft 10 kts 252°
2026-05-06 07:04 8.97584 38.78888 0 ft 12 kts 253°
2026-05-06 07:04 8.97565 38.78821 0 ft 12 kts 255°
2026-05-06 07:04 8.97546 38.78750 0 ft 13 kts 254°
2026-05-06 07:04 8.97526 38.78676 0 ft 15 kts 255°
2026-05-06 07:05 8.97501 38.78591 0 ft 16 kts 253°
2026-05-06 07:05 8.97474 38.78499 0 ft 17 kts 253°
2026-05-06 07:05 8.97448 38.78408 0 ft 17 kts 254°
2026-05-06 07:05 8.97415 38.78326 0 ft 13 kts 237°
2026-05-06 07:06 8.97351 38.78297 0 ft 14 kts 167°
2026-05-06 07:06 8.97280 38.78342 0 ft 15 kts 137°
2026-05-06 07:06 8.97250 38.78405 0 ft 12 kts 86°
2026-05-06 07:06 8.97266 38.78479 0 ft 13 kts 74°
2026-05-06 07:07 8.97289 38.78559 0 ft 14 kts 73°
2026-05-06 07:07 8.97314 38.78645 0 ft 14 kts 71°
2026-05-06 07:07 8.97329 38.78692 0 ft 0 kts 73°
2026-05-06 07:08 8.97335 38.78712 0 ft 12 kts 74°
2026-05-06 07:09 8.97388 38.78901 0 ft 54 kts 75°
2026-05-06 07:09 8.97510 38.79326 0 ft 94 kts 73°
2026-05-06 07:09 8.97698 38.79965 0 ft 130 kts 73°
2026-05-06 07:09 8.97932 38.80743 0 ft 162 kts 75°
2026-05-06 07:10 8.98186 38.81696 0 ft 180 kts 75°
2026-05-06 07:10 8.98471 38.82757 0 ft 173 kts 75°
2026-05-06 07:10 8.98854 38.83772 0 ft 194 kts 66°
2026-05-06 07:10 8.99054 38.84858 0 ft 202 kts 103°
2026-05-06 07:11 8.98402 38.85961 0 ft 210 kts 146°
2026-05-06 07:11 8.97096 38.86355 0 ft 235 kts 185°
2026-05-06 07:11 8.95638 38.85736 0 ft 246 kts 223°
2026-05-06 07:11 8.94503 38.84550 0 ft 245 kts 229°
2026-05-06 07:12 8.93511 38.83396 0 ft 256 kts 230°
2026-05-06 07:12 8.92458 38.82141 0 ft 286 kts 230°
2026-05-06 07:12 8.91243 38.80664 0 ft 313 kts 230°
2026-05-06 07:12 8.89928 38.79106 0 ft 336 kts 228°
2026-05-06 07:13 8.88379 38.77486 0 ft 356 kts 224°
2026-05-06 07:13 8.86686 38.75932 0 ft 373 kts 220°
2026-05-06 07:13 8.84971 38.74508 0 ft 376 kts 218°
2026-05-06 07:13 8.83144 38.73084 0 ft 379 kts 217°
2026-05-06 07:14 8.81194 38.71638 0 ft 379 kts 216°
2026-05-06 07:14 8.79325 38.70305 0 ft 376 kts 215°
2026-05-06 07:14 8.77378 38.68958 0 ft 383 kts 214°
2026-05-06 07:14 8.75327 38.67579 0 ft 385 kts 213°
2026-05-06 07:15 8.73245 38.66211 0 ft 384 kts 213°
2026-05-06 07:15 8.71266 38.64935 0 ft 384 kts 212°
2026-05-06 07:15 8.69140 38.63585 0 ft 384 kts 212°
2026-05-06 07:15 8.67052 38.62276 0 ft 384 kts 212°
2026-05-06 07:16 8.64889 38.60934 0 ft 387 kts 211°
2026-05-06 07:16 8.62691 38.59583 0 ft 388 kts 211°
2026-05-06 07:16 8.60430 38.58204 0 ft 391 kts 211°
2026-05-06 07:16 8.58200 38.56853 0 ft 394 kts 211°
2026-05-06 07:17 8.55910 38.55473 0 ft 397 kts 211°
2026-05-06 07:17 8.53615 38.54096 0 ft 400 kts 211°
2026-05-06 07:17 8.51275 38.52698 0 ft 402 kts 211°
2026-05-06 07:17 8.49058 38.51376 0 ft 405 kts 211°
2026-05-06 07:18 8.46834 38.50053 0 ft 407 kts 211°
2026-05-06 07:18 8.44514 38.48676 0 ft 409 kts 210°
2026-05-06 07:18 8.42244 38.47330 0 ft 411 kts 210°
2026-05-06 07:18 8.40730 38.46434 0 ft 413 kts 210°
2026-05-06 07:19 8.37734 38.44663 0 ft 416 kts 210°
2026-05-06 07:19 8.35371 38.43267 0 ft 418 kts 210°
2026-05-06 07:19 8.33061 38.41905 0 ft 420 kts 210°
2026-05-06 07:19 8.30802 38.40573 0 ft 422 kts 210°
2026-05-06 07:20 8.29303 38.39689 0 ft 423 kts 210°
2026-05-06 07:20 8.26277 38.37905 0 ft 425 kts 210°
2026-05-06 07:20 8.23958 38.36540 0 ft 426 kts 210°
2026-05-06 07:20 8.21642 38.35177 0 ft 428 kts 210°
2026-05-06 07:21 8.20044 38.34237 0 ft 429 kts 210°
2026-05-06 07:21 8.16999 38.32446 0 ft 431 kts 210°
2026-05-06 07:21 8.15395 38.31502 0 ft 432 kts 210°
2026-05-06 07:21 8.12917 38.30045 0 ft 434 kts 210°
2026-05-06 07:22 8.10487 38.28616 0 ft 435 kts 210°
2026-05-06 07:22 8.08048 38.27182 0 ft 437 kts 210°
2026-05-06 07:22 8.05802 38.25862 0 ft 438 kts 210°
2026-05-06 07:22 8.03408 38.24456 0 ft 440 kts 210°
2026-05-06 07:23 8.01127 38.23116 0 ft 441 kts 210°
2026-05-06 07:23 7.98828 38.21765 0 ft 442 kts 210°
2026-05-06 07:23 7.96466 38.20368 0 ft 444 kts 212°
2026-05-06 07:23 7.94118 38.18732 0 ft 445 kts 216°
2026-05-06 07:24 7.91861 38.17000 0 ft 446 kts 218°
2026-05-06 07:24 7.89568 38.15177 0 ft 448 kts 218°
2026-05-06 07:24 7.87278 38.13331 0 ft 449 kts 219°
2026-05-06 07:24 7.85020 38.11503 0 ft 450 kts 219°
2026-05-06 07:25 7.82853 38.09748 0 ft 451 kts 219°
2026-05-06 07:25 7.80592 38.07921 0 ft 453 kts 219°
2026-05-06 07:25 7.78281 38.06056 0 ft 454 kts 219°
2026-05-06 07:25 7.76023 38.04241 0 ft 455 kts 218°
2026-05-06 07:26 7.73657 38.02343 0 ft 456 kts 218°
2026-05-06 07:26 7.71304 38.00461 0 ft 457 kts 218°
2026-05-06 07:26 7.68983 37.98608 0 ft 459 kts 218°
2026-05-06 07:26 7.66572 37.96688 0 ft 460 kts 218°
2026-05-06 07:27 7.64191 37.94794 0 ft 461 kts 218°
2026-05-06 07:27 7.61694 37.92812 0 ft 462 kts 218°
2026-05-06 07:27 7.59551 37.91113 0 ft 463 kts 218°
2026-05-06 07:27 7.57375 37.89390 0 ft 457 kts 218°
2026-05-06 07:28 7.55036 37.87539 0 ft 427 kts 218°
2026-05-06 07:28 7.52827 37.85792 0 ft 409 kts 218°
2026-05-06 07:28 7.48470 37.82350 0 ft 415 kts 218°
2026-05-06 07:29 7.46280 37.80621 0 ft 420 kts 218°
2026-05-06 07:29 7.44043 37.78857 0 ft 420 kts 218°
2026-05-06 07:29 7.41828 37.77110 0 ft 419 kts 218°
2026-05-06 07:29 7.39613 37.75365 0 ft 417 kts 218°
2026-05-06 07:30 7.37600 37.73779 0 ft 417 kts 218°
2026-05-06 07:30 7.35581 37.72189 0 ft 417 kts 218°
2026-05-06 07:30 7.33436 37.70501 0 ft 418 kts 218°
2026-05-06 07:30 7.31326 37.68840 0 ft 418 kts 218°
2026-05-06 07:31 7.29274 37.67225 0 ft 418 kts 218°
2026-05-06 07:31 7.27184 37.65582 0 ft 418 kts 218°
2026-05-06 07:31 7.25069 37.63918 0 ft 417 kts 218°
2026-05-06 07:31 7.22994 37.62288 0 ft 417 kts 218°
2026-05-06 07:32 7.20898 37.60640 0 ft 417 kts 218°
2026-05-06 07:32 7.18812 37.59000 0 ft 418 kts 218°
2026-05-06 07:32 7.16708 37.57348 0 ft 418 kts 218°
2026-05-06 07:32 7.14623 37.55710 0 ft 418 kts 218°
2026-05-06 07:33 7.12490 37.54034 0 ft 418 kts 218°
2026-05-06 07:33 7.10367 37.52367 0 ft 417 kts 218°
2026-05-06 07:33 7.08201 37.50666 0 ft 417 kts 218°
2026-05-06 07:33 7.05975 37.48917 0 ft 417 kts 218°
2026-05-06 07:34 7.03733 37.47157 0 ft 418 kts 218°
2026-05-06 07:34 7.01513 37.45414 0 ft 418 kts 218°
2026-05-06 07:34 6.99335 37.43704 0 ft 418 kts 218°
2026-05-06 07:34 6.97144 37.41985 0 ft 418 kts 218°
2026-05-06 07:35 6.94963 37.40273 0 ft 417 kts 218°
2026-05-06 07:35 6.92838 37.38606 0 ft 417 kts 218°
2026-05-06 07:35 6.90613 37.36860 0 ft 417 kts 218°
2026-05-06 07:35 6.88403 37.35126 0 ft 418 kts 218°
2026-05-06 07:36 6.86206 37.33403 0 ft 418 kts 218°
2026-05-06 07:36 6.84035 37.31699 0 ft 418 kts 218°
2026-05-06 07:36 6.81945 37.30060 0 ft 418 kts 218°
2026-05-06 07:36 6.79799 37.28377 0 ft 417 kts 218°
2026-05-06 07:37 6.77639 37.26684 0 ft 417 kts 218°
2026-05-06 07:37 6.75501 37.25007 0 ft 417 kts 218°
2026-05-06 07:37 6.73310 37.23290 0 ft 418 kts 218°
2026-05-06 07:37 6.71051 37.21519 0 ft 418 kts 218°
2026-05-06 07:38 6.68744 37.19711 0 ft 418 kts 218°
2026-05-06 07:38 6.66511 37.17961 0 ft 418 kts 218°
2026-05-06 07:38 6.64325 37.16249 0 ft 418 kts 218°
2026-05-06 07:38 6.62147 37.14542 0 ft 417 kts 218°
2026-05-06 07:39 6.59940 37.12814 0 ft 418 kts 218°
2026-05-06 07:39 6.57708 37.11066 0 ft 418 kts 218°
2026-05-06 07:39 6.55533 37.09362 0 ft 418 kts 218°
2026-05-06 07:39 6.53325 37.07633 0 ft 418 kts 218°
2026-05-06 07:40 6.51089 37.05883 0 ft 418 kts 218°
2026-05-06 07:40 6.48866 37.04143 0 ft 418 kts 218°
2026-05-06 07:40 6.46682 37.02433 0 ft 417 kts 218°
2026-05-06 07:40 6.44475 37.00705 0 ft 417 kts 218°
2026-05-06 07:41 6.42247 36.98962 0 ft 418 kts 218°
2026-05-06 07:41 6.40009 36.97210 0 ft 418 kts 218°
2026-05-06 07:41 6.37806 36.95486 0 ft 418 kts 218°
2026-05-06 07:41 6.35574 36.93739 0 ft 418 kts 218°
2026-05-06 07:42 6.33349 36.91998 0 ft 418 kts 218°
2026-05-06 07:42 6.31109 36.90245 0 ft 417 kts 218°
2026-05-06 07:42 6.28894 36.88512 0 ft 417 kts 218°
2026-05-06 07:42 6.26711 36.86805 0 ft 418 kts 218°
2026-05-06 07:43 6.24524 36.85094 0 ft 418 kts 218°
2026-05-06 07:43 6.22326 36.83375 0 ft 418 kts 218°
2026-05-06 07:43 6.20105 36.81639 0 ft 418 kts 218°
2026-05-06 07:43 6.17886 36.79904 0 ft 418 kts 218°
2026-05-06 07:44 6.15664 36.78167 0 ft 418 kts 218°
2026-05-06 07:44 6.13440 36.76429 0 ft 417 kts 218°
2026-05-06 07:44 6.11256 36.74723 0 ft 417 kts 218°
2026-05-06 07:44 6.09010 36.72968 0 ft 418 kts 218°
2026-05-06 07:45 6.06825 36.71261 0 ft 418 kts 218°
2026-05-06 07:45 6.04611 36.69531 0 ft 418 kts 218°
2026-05-06 07:45 6.02390 36.67797 0 ft 418 kts 218°
2026-05-06 07:45 6.00230 36.66110 0 ft 417 kts 218°
2026-05-06 07:46 5.98010 36.64375 0 ft 417 kts 218°
2026-05-06 07:46 5.95790 36.62641 0 ft 418 kts 218°
2026-05-06 07:46 5.93589 36.60922 0 ft 418 kts 218°
2026-05-06 07:46 5.91358 36.59181 0 ft 418 kts 218°
2026-05-06 07:47 5.89134 36.57444 0 ft 418 kts 218°
2026-05-06 07:47 5.86909 36.55707 0 ft 417 kts 218°
2026-05-06 07:47 5.84675 36.53963 0 ft 417 kts 218°
2026-05-06 07:47 5.82443 36.52221 0 ft 417 kts 218°
2026-05-06 07:48 5.80224 36.50489 0 ft 418 kts 218°
2026-05-06 07:48 5.78033 36.48779 0 ft 418 kts 218°
2026-05-06 07:48 5.75808 36.47043 0 ft 418 kts 218°
2026-05-06 07:48 5.73560 36.45290 0 ft 418 kts 218°
2026-05-06 07:49 5.71390 36.43597 0 ft 417 kts 218°
2026-05-06 07:49 5.69153 36.41852 0 ft 417 kts 218°
2026-05-06 07:49 5.66924 36.40113 0 ft 417 kts 218°
2026-05-06 07:49 5.64685 36.38367 0 ft 418 kts 218°
2026-05-06 07:50 5.62451 36.36626 0 ft 418 kts 218°
2026-05-06 07:50 5.60224 36.34889 0 ft 418 kts 218°
2026-05-06 07:50 5.57984 36.33143 0 ft 418 kts 218°
2026-05-06 07:50 5.55744 36.31397 0 ft 417 kts 218°
2026-05-06 07:51 5.53505 36.29653 0 ft 417 kts 218°
2026-05-06 07:51 5.51258 36.27901 0 ft 417 kts 218°
2026-05-06 07:51 5.49021 36.26158 0 ft 418 kts 218°
2026-05-06 07:51 5.46785 36.24416 0 ft 418 kts 218°
2026-05-06 07:52 5.44599 36.22712 0 ft 418 kts 218°
2026-05-06 07:52 5.42354 36.20962 0 ft 418 kts 218°
2026-05-06 07:52 5.40201 36.19285 0 ft 417 kts 218°
2026-05-06 07:52 5.37977 36.17552 0 ft 417 kts 218°
2026-05-06 07:53 5.35749 36.15816 0 ft 417 kts 218°
2026-05-06 07:53 5.33501 36.14065 0 ft 418 kts 218°
2026-05-06 07:53 5.31283 36.12338 0 ft 418 kts 218°
2026-05-06 07:53 5.29035 36.10587 0 ft 418 kts 218°
2026-05-06 07:54 5.26810 36.08855 0 ft 418 kts 218°
2026-05-06 07:54 5.24572 36.07112 0 ft 417 kts 218°
2026-05-06 07:54 5.22353 36.05385 0 ft 417 kts 218°
2026-05-06 07:54 5.20257 36.03753 0 ft 418 kts 218°
2026-05-06 07:55 5.18123 36.02092 0 ft 418 kts 218°
2026-05-06 07:55 5.15985 36.00428 0 ft 418 kts 218°
2026-05-06 07:55 5.13748 35.98686 0 ft 418 kts 218°
2026-05-06 07:55 5.11455 35.96902 0 ft 418 kts 218°
2026-05-06 07:56 5.09153 35.95110 0 ft 417 kts 218°
2026-05-06 07:56 5.06928 35.93379 0 ft 417 kts 218°
2026-05-06 07:56 5.04673 35.91625 0 ft 418 kts 218°
2026-05-06 07:56 5.02462 35.89905 0 ft 418 kts 218°
2026-05-06 07:57 5.00232 35.88170 0 ft 418 kts 218°
2026-05-06 07:57 4.98009 35.86441 0 ft 418 kts 218°
2026-05-06 07:57 4.95792 35.84717 0 ft 418 kts 218°
2026-05-06 07:57 4.93579 35.82997 0 ft 417 kts 218°
2026-05-06 07:58 4.91427 35.81323 0 ft 417 kts 218°
2026-05-06 07:58 4.89369 35.79723 0 ft 418 kts 218°
2026-05-06 07:58 4.87199 35.78036 0 ft 418 kts 218°
2026-05-06 07:58 4.85063 35.76376 0 ft 418 kts 218°
2026-05-06 07:59 4.82970 35.74749 0 ft 418 kts 218°
2026-05-06 07:59 4.80856 35.73106 0 ft 418 kts 218°
2026-05-06 07:59 4.78763 35.71480 0 ft 417 kts 218°
2026-05-06 07:59 4.76697 35.69874 0 ft 417 kts 218°
2026-05-06 08:00 4.74579 35.68229 0 ft 417 kts 218°
2026-05-06 08:00 4.72478 35.66597 0 ft 418 kts 218°
2026-05-06 08:00 4.70385 35.64972 0 ft 418 kts 218°
2026-05-06 08:00 4.68206 35.63279 0 ft 418 kts 218°
2026-05-06 08:01 4.66080 35.61627 0 ft 418 kts 218°
2026-05-06 08:01 4.64013 35.60022 0 ft 417 kts 218°
2026-05-06 08:01 4.61914 35.58393 0 ft 417 kts 218°
2026-05-06 08:01 4.59851 35.56790 0 ft 417 kts 218°
2026-05-06 08:02 4.57752 35.55160 0 ft 418 kts 218°
2026-05-06 08:02 4.55590 35.53481 0 ft 418 kts 218°
2026-05-06 08:02 4.53506 35.51863 0 ft 418 kts 218°
2026-05-06 08:02 4.51402 35.50229 0 ft 418 kts 218°
2026-05-06 08:03 4.49276 35.48578 0 ft 418 kts 218°
2026-05-06 08:03 4.47133 35.46914 0 ft 417 kts 218°
2026-05-06 08:03 4.45012 35.45267 0 ft 417 kts 218°
2026-05-06 08:03 4.42911 35.43637 0 ft 417 kts 218°
2026-05-06 08:04 4.40817 35.42012 0 ft 418 kts 218°
2026-05-06 08:04 4.38640 35.40322 0 ft 418 kts 218°
2026-05-06 08:04 4.37238 35.39234 0 ft 418 kts 218°
2026-05-06 08:04 4.34443 35.37065 0 ft 418 kts 218°
2026-05-06 08:05 4.32324 35.35421 0 ft 418 kts 218°
2026-05-06 08:05 4.30156 35.33739 0 ft 417 kts 218°
2026-05-06 08:05 4.28042 35.32100 0 ft 417 kts 218°
2026-05-06 08:05 4.25880 35.30423 0 ft 418 kts 218°
2026-05-06 08:06 4.23756 35.28776 0 ft 418 kts 218°
2026-05-06 08:06 4.22324 35.27665 0 ft 418 kts 218°
2026-05-06 08:06 4.19424 35.25417 0 ft 418 kts 218°
2026-05-06 08:06 4.17275 35.23750 0 ft 418 kts 218°
2026-05-06 08:07 4.15120 35.22080 0 ft 417 kts 218°
2026-05-06 08:07 4.12955 35.20401 0 ft 417 kts 218°
2026-05-06 08:07 4.10864 35.18780 0 ft 418 kts 218°
2026-05-06 08:07 4.08903 35.17260 0 ft 418 kts 218°
2026-05-06 08:08 4.06811 35.15638 0 ft 418 kts 218°
2026-05-06 08:08 4.04668 35.13976 0 ft 418 kts 218°
2026-05-06 08:08 4.02553 35.12337 0 ft 418 kts 218°
2026-05-06 08:08 4.00449 35.10706 0 ft 417 kts 218°
2026-05-06 08:09 3.99039 35.09613 0 ft 417 kts 218°
2026-05-06 08:09 3.96918 35.07970 0 ft 417 kts 218°
2026-05-06 08:09 3.94728 35.06272 0 ft 418 kts 218°
2026-05-06 08:09 3.92590 35.04616 0 ft 418 kts 218°
2026-05-06 08:10 3.90416 35.02931 0 ft 418 kts 218°
2026-05-06 08:10 3.88289 35.01282 0 ft 418 kts 218°
2026-05-06 08:10 3.86114 34.99598 0 ft 418 kts 218°
2026-05-06 08:10 3.83896 34.97880 0 ft 417 kts 218°
2026-05-06 08:11 3.81596 34.96098 0 ft 417 kts 218°
2026-05-06 08:11 3.79314 34.94331 0 ft 418 kts 218°
2026-05-06 08:11 3.77034 34.92565 0 ft 418 kts 218°
2026-05-06 08:11 3.74740 34.90790 0 ft 418 kts 218°
2026-05-06 08:12 3.72491 34.89047 0 ft 417 kts 218°
2026-05-06 08:12 3.70203 34.87271 0 ft 417 kts 218°
2026-05-06 08:12 3.67978 34.85543 0 ft 418 kts 218°
2026-05-06 08:12 3.65831 34.83879 0 ft 418 kts 218°
2026-05-06 08:13 3.63736 34.82257 0 ft 419 kts 218°
2026-05-06 08:13 3.61601 34.80606 0 ft 418 kts 218°
2026-05-06 08:13 3.59430 34.78927 0 ft 418 kts 218°
2026-05-06 08:13 3.57264 34.77251 0 ft 417 kts 218°
2026-05-06 08:14 3.55017 34.75513 0 ft 418 kts 218°
2026-05-06 08:14 3.52790 34.73790 0 ft 418 kts 218°
2026-05-06 08:14 3.50594 34.72091 0 ft 419 kts 218°
2026-05-06 08:14 3.48381 34.70380 0 ft 418 kts 218°
2026-05-06 08:15 3.46173 34.68671 0 ft 418 kts 218°
2026-05-06 08:15 3.43949 34.66951 0 ft 418 kts 218°
2026-05-06 08:15 3.41712 34.65220 0 ft 418 kts 218°
2026-05-06 08:15 3.39469 34.63485 0 ft 418 kts 218°
2026-05-06 08:16 3.37243 34.61765 0 ft 419 kts 218°
2026-05-06 08:16 3.34988 34.60021 0 ft 419 kts 218°
2026-05-06 08:16 3.32757 34.58295 0 ft 418 kts 218°
2026-05-06 08:16 3.30496 34.56546 0 ft 418 kts 218°
2026-05-06 08:17 3.28465 34.54975 0 ft 418 kts 218°
2026-05-06 08:17 3.26358 34.53346 0 ft 418 kts 218°
2026-05-06 08:17 3.24294 34.51749 0 ft 419 kts 218°
2026-05-06 08:17 3.22156 34.50096 0 ft 419 kts 218°
2026-05-06 08:18 3.20155 34.48549 0 ft 419 kts 218°
2026-05-06 08:18 3.18236 34.47066 0 ft 418 kts 218°
2026-05-06 08:18 3.16099 34.45414 0 ft 418 kts 218°
2026-05-06 08:18 3.14083 34.43855 0 ft 418 kts 218°
2026-05-06 08:19 3.12118 34.42336 0 ft 418 kts 218°
2026-05-06 08:19 3.10083 34.40763 0 ft 418 kts 218°
2026-05-06 08:19 3.07888 34.39066 0 ft 419 kts 218°
2026-05-06 08:20 2.99647 34.32696 0 ft 418 kts 218°
2026-05-06 08:20 2.97628 34.31135 0 ft 418 kts 218°
2026-05-06 08:21 2.95641 34.29600 0 ft 418 kts 218°
2026-05-06 08:21 2.93565 34.27995 0 ft 419 kts 218°
2026-05-06 08:21 2.91531 34.26423 0 ft 419 kts 218°
2026-05-06 08:21 2.89487 34.24844 0 ft 419 kts 218°
2026-05-06 08:22 2.87491 34.23302 0 ft 418 kts 218°
2026-05-06 08:22 2.85493 34.21759 0 ft 418 kts 218°
2026-05-06 08:22 2.83519 34.20234 0 ft 418 kts 218°
2026-05-06 08:22 2.81578 34.18734 0 ft 418 kts 218°
2026-05-06 08:23 2.79506 34.17135 0 ft 419 kts 218°
2026-05-06 08:23 2.77458 34.15552 0 ft 419 kts 218°
2026-05-06 08:23 2.75320 34.13900 0 ft 419 kts 218°
2026-05-06 08:23 2.73348 34.12377 0 ft 418 kts 218°
2026-05-06 08:24 2.71422 34.10889 0 ft 418 kts 218°
2026-05-06 08:24 2.69437 34.09356 0 ft 418 kts 218°
2026-05-06 08:24 2.67556 34.07903 0 ft 418 kts 218°
2026-05-06 08:24 2.65597 34.06391 0 ft 419 kts 218°
2026-05-06 08:25 2.63603 34.04851 0 ft 419 kts 218°
2026-05-06 08:25 2.61581 34.03290 0 ft 419 kts 218°
2026-05-06 08:25 2.59547 34.01720 0 ft 419 kts 218°
2026-05-06 08:25 2.57566 34.00190 0 ft 418 kts 218°
2026-05-06 08:26 2.55495 33.98590 0 ft 418 kts 218°
2026-05-06 08:26 2.53388 33.96964 0 ft 418 kts 218°
2026-05-06 08:26 2.51290 33.95343 0 ft 418 kts 218°
2026-05-06 08:26 2.49246 33.93766 0 ft 419 kts 218°
2026-05-06 08:27 2.47233 33.92211 0 ft 419 kts 218°
2026-05-06 08:27 2.45137 33.90593 0 ft 419 kts 218°
2026-05-06 08:27 2.43068 33.88997 0 ft 418 kts 218°
2026-05-06 08:27 2.41234 33.87581 0 ft 418 kts 218°
2026-05-06 08:28 2.39266 33.86062 0 ft 418 kts 218°
2026-05-06 08:28 2.37169 33.84444 0 ft 418 kts 218°
2026-05-06 08:28 2.35037 33.82799 0 ft 419 kts 218°
2026-05-06 08:28 2.33015 33.81238 0 ft 419 kts 218°
2026-05-06 08:29 2.31104 33.79762 0 ft 419 kts 218°
2026-05-06 08:29 2.29008 33.78145 0 ft 418 kts 218°
2026-05-06 08:29 2.26854 33.76482 0 ft 418 kts 218°
2026-05-06 08:29 2.24661 33.74790 0 ft 418 kts 218°
2026-05-06 08:30 2.22503 33.73125 0 ft 418 kts 218°
2026-05-06 08:30 2.20287 33.71416 0 ft 419 kts 218°
2026-05-06 08:30 2.18063 33.69699 0 ft 419 kts 218°
2026-05-06 08:30 2.15954 33.68072 0 ft 419 kts 218°
2026-05-06 08:31 2.13848 33.66447 0 ft 419 kts 218°
2026-05-06 08:31 2.11671 33.64767 0 ft 418 kts 218°
2026-05-06 08:31 2.09410 33.63023 0 ft 418 kts 218°
2026-05-06 08:31 2.07215 33.61330 0 ft 418 kts 218°
2026-05-06 08:32 2.04949 33.59582 0 ft 418 kts 218°
2026-05-06 08:32 2.02689 33.57838 0 ft 419 kts 218°
2026-05-06 08:32 2.00457 33.56117 0 ft 419 kts 218°
2026-05-06 08:32 1.98192 33.54370 0 ft 418 kts 218°
2026-05-06 08:33 1.96104 33.52760 0 ft 418 kts 218°
2026-05-06 08:33 1.94033 33.51162 0 ft 418 kts 218°
2026-05-06 08:33 1.91963 33.49565 0 ft 418 kts 218°
2026-05-06 08:33 1.89923 33.47992 0 ft 419 kts 218°
2026-05-06 08:34 1.87846 33.46390 0 ft 419 kts 218°
2026-05-06 08:34 1.83721 33.43209 0 ft 419 kts 218°
2026-05-06 08:34 1.81654 33.41616 0 ft 418 kts 218°
2026-05-06 08:35 1.79602 33.40033 0 ft 418 kts 218°
2026-05-06 08:35 1.77533 33.38438 0 ft 418 kts 218°
2026-05-06 08:35 1.75438 33.36822 0 ft 418 kts 218°
2026-05-06 08:35 1.73270 33.35150 0 ft 419 kts 218°
2026-05-06 08:36 1.71137 33.33506 0 ft 419 kts 218°
2026-05-06 08:36 1.68970 33.31834 0 ft 419 kts 218°
2026-05-06 08:36 1.66786 33.30151 0 ft 418 kts 218°
2026-05-06 08:36 1.64602 33.28467 0 ft 418 kts 218°
2026-05-06 08:37 1.62364 33.26742 0 ft 418 kts 218°
2026-05-06 08:37 1.60185 33.25062 0 ft 418 kts 218°
2026-05-06 08:37 1.57991 33.23370 0 ft 419 kts 218°
2026-05-06 08:37 1.55724 33.21623 0 ft 419 kts 218°
2026-05-06 08:38 1.53456 33.19874 0 ft 419 kts 218°
2026-05-06 08:38 1.51234 33.18162 0 ft 418 kts 218°
2026-05-06 08:38 1.48940 33.16394 0 ft 418 kts 218°
2026-05-06 08:38 1.46689 33.14658 0 ft 418 kts 218°
2026-05-06 08:39 1.44463 33.12942 0 ft 418 kts 218°
2026-05-06 08:39 1.42215 33.11209 0 ft 419 kts 218°
2026-05-06 08:39 1.39998 33.09500 0 ft 419 kts 218°
2026-05-06 08:39 1.37778 33.07789 0 ft 418 kts 218°
2026-05-06 08:40 1.35604 33.06114 0 ft 418 kts 218°
2026-05-06 08:40 1.33625 33.04589 0 ft 418 kts 218°
2026-05-06 08:40 1.31639 33.03058 0 ft 405 kts 218°
2026-05-06 08:40 1.29573 33.01466 0 ft 382 kts 218°
2026-05-06 08:41 1.27565 32.99919 0 ft 361 kts 218°
2026-05-06 08:41 1.25704 32.98484 0 ft 351 kts 218°
2026-05-06 08:41 1.23832 32.97041 0 ft 352 kts 218°
2026-05-06 08:41 1.21931 32.95576 0 ft 355 kts 218°
2026-05-06 08:42 1.20054 32.94129 0 ft 358 kts 218°
2026-05-06 08:42 1.18259 32.92746 0 ft 358 kts 218°
2026-05-06 08:42 1.16440 32.91344 0 ft 357 kts 218°
2026-05-06 08:42 1.14544 32.89882 0 ft 356 kts 218°
2026-05-06 08:43 1.12718 32.88474 0 ft 356 kts 218°
2026-05-06 08:43 1.10971 32.87128 0 ft 356 kts 218°
2026-05-06 08:43 1.09100 32.85686 0 ft 357 kts 218°
2026-05-06 08:43 1.07259 32.84267 0 ft 358 kts 218°
2026-05-06 08:44 1.05373 32.82813 0 ft 358 kts 218°
2026-05-06 08:44 1.03480 32.81354 0 ft 356 kts 218°
2026-05-06 08:44 1.01616 32.79918 0 ft 354 kts 218°
2026-05-06 08:44 0.99764 32.78492 0 ft 351 kts 218°
2026-05-06 08:45 0.97918 32.77070 0 ft 347 kts 218°
2026-05-06 08:45 0.96109 32.75675 0 ft 344 kts 218°
2026-05-06 08:45 0.94222 32.74222 0 ft 340 kts 218°
2026-05-06 08:45 0.92363 32.72789 0 ft 337 kts 218°
2026-05-06 08:46 0.90546 32.71389 0 ft 334 kts 218°
2026-05-06 08:46 0.88774 32.70024 0 ft 331 kts 218°
2026-05-06 08:46 0.87064 32.68706 0 ft 328 kts 218°
2026-05-06 08:46 0.85417 32.67437 0 ft 326 kts 218°
2026-05-06 08:47 0.84349 32.66614 0 ft 324 kts 218°
2026-05-06 08:47 0.82814 32.65431 0 ft 322 kts 218°
2026-05-06 08:47 0.81231 32.64211 0 ft 320 kts 218°
2026-05-06 08:47 0.79655 32.62997 0 ft 317 kts 218°
2026-05-06 08:48 0.77434 32.61286 0 ft 314 kts 218°
2026-05-06 08:48 0.76353 32.60453 0 ft 313 kts 218°
2026-05-06 08:48 0.74665 32.59153 0 ft 310 kts 218°
2026-05-06 08:48 0.72507 32.57490 0 ft 308 kts 218°
2026-05-06 08:49 0.71479 32.56698 0 ft 306 kts 218°
2026-05-06 08:49 0.69943 32.55515 0 ft 304 kts 218°
2026-05-06 08:49 0.68386 32.54315 0 ft 303 kts 218°
2026-05-06 08:49 0.66313 32.52717 0 ft 299 kts 218°
2026-05-06 08:50 0.65292 32.51931 0 ft 298 kts 218°
2026-05-06 08:50 0.63727 32.50725 0 ft 296 kts 218°
2026-05-06 08:50 0.62223 32.49566 0 ft 294 kts 218°
2026-05-06 08:50 0.60725 32.48412 0 ft 291 kts 218°
2026-05-06 08:51 0.59192 32.47231 0 ft 289 kts 218°
2026-05-06 08:51 0.57669 32.46058 0 ft 285 kts 218°
2026-05-06 08:51 0.56157 32.44892 0 ft 277 kts 218°
2026-05-06 08:51 0.54706 32.43774 0 ft 270 kts 218°
2026-05-06 08:52 0.53344 32.42724 0 ft 264 kts 218°
2026-05-06 08:52 0.51999 32.41688 0 ft 257 kts 218°
2026-05-06 08:52 0.50665 32.40660 0 ft 250 kts 218°
2026-05-06 08:52 0.49394 32.39680 0 ft 240 kts 218°
2026-05-06 08:53 0.48162 32.38913 0 ft 228 kts 197°
2026-05-06 08:53 0.46722 32.38661 0 ft 231 kts 186°
2026-05-06 08:53 0.45303 32.38570 0 ft 234 kts 182°
2026-05-06 08:53 0.43776 32.38576 0 ft 234 kts 178°
2026-05-06 08:54 0.42251 32.38659 0 ft 233 kts 176°
2026-05-06 08:54 0.40650 32.38802 0 ft 233 kts 174°
2026-05-06 08:54 0.39120 32.38976 0 ft 231 kts 173°
2026-05-06 08:54 0.37626 32.39170 0 ft 224 kts 173°
2026-05-06 08:55 0.36173 32.39371 0 ft 223 kts 172°
2026-05-06 08:55 0.34703 32.39579 0 ft 219 kts 172°
2026-05-06 08:55 0.33231 32.39789 0 ft 222 kts 172°
2026-05-06 08:55 0.31888 32.39980 0 ft 223 kts 172°
2026-05-06 08:56 0.30594 32.40163 0 ft 223 kts 172°
2026-05-06 08:56 0.29183 32.40360 0 ft 223 kts 173°
2026-05-06 08:56 0.27794 32.40551 0 ft 226 kts 173°
2026-05-06 08:56 0.26512 32.40727 0 ft 226 kts 173°
2026-05-06 08:57 0.25177 32.40913 0 ft 225 kts 173°
2026-05-06 08:57 0.23702 32.41118 0 ft 224 kts 172°
2026-05-06 08:57 0.22271 32.41317 0 ft 222 kts 173°
2026-05-06 08:57 0.20941 32.41502 0 ft 215 kts 173°
2026-05-06 08:58 0.19606 32.41686 0 ft 215 kts 173°
2026-05-06 08:58 0.18312 32.41863 0 ft 217 kts 173°
2026-05-06 08:58 0.16935 32.42053 0 ft 217 kts 173°
2026-05-06 08:58 0.15516 32.42249 0 ft 217 kts 173°
2026-05-06 08:59 0.14135 32.42438 0 ft 219 kts 173°
2026-05-06 08:59 0.12820 32.42618 0 ft 215 kts 173°
2026-05-06 08:59 0.11637 32.42781 0 ft 189 kts 173°
2026-05-06 08:59 0.10592 32.42927 0 ft 161 kts 173°
2026-05-06 09:00 0.09638 32.43058 0 ft 160 kts 173°
2026-05-06 09:00 0.08741 32.43181 0 ft 161 kts 173°
2026-05-06 09:00 0.08006 32.43282 0 ft 160 kts 173°
2026-05-06 09:00 0.07310 32.43379 0 ft 159 kts 173°
2026-05-06 09:01 0.06680 32.43466 0 ft 159 kts 173°
2026-05-06 09:01 0.06142 32.43540 0 ft 159 kts 173°
2026-05-06 09:01 0.05469 32.43633 0 ft 160 kts 173°
2026-05-06 09:01 0.04714 32.43726 0 ft 150 kts 175°
2026-05-06 09:02 0.03973 32.43799 0 ft 161 kts 175°
2026-05-06 09:02 0.03271 32.43866 0 ft 155 kts 175°
2026-05-06 09:02 0.02418 32.43950 0 ft 148 kts 175°
2026-05-06 09:02 0.01519 32.43884 0 ft 174 kts 209°
2026-05-06 09:03 0.00815 32.43087 0 ft 191 kts 256°
2026-05-06 09:03 0.00944 32.41877 0 ft 206 kts 300°
2026-05-06 09:03 0.01933 32.41008 0 ft 223 kts 339°
2026-05-06 09:03 0.03254 32.40920 0 ft 225 kts 15°
2026-05-06 09:04 0.04397 32.41646 0 ft 224 kts 49°
2026-05-06 09:04 0.05254 32.42725 0 ft 224 kts 45°
2026-05-06 09:04 0.06403 32.43425 0 ft 223 kts 23°
2026-05-06 09:04 0.07736 32.43965 0 ft 222 kts 21°
2026-05-06 09:05 0.09101 32.44486 0 ft 222 kts 20°
2026-05-06 09:05 0.10418 32.44979 0 ft 223 kts 20°
2026-05-06 09:05 0.11788 32.45485 0 ft 222 kts 20°
2026-05-06 09:05 0.13144 32.45981 0 ft 222 kts 20°
2026-05-06 09:06 0.14493 32.46473 0 ft 222 kts 20°
2026-05-06 09:06 0.15843 32.46966 0 ft 223 kts 20°
2026-05-06 09:06 0.17174 32.47451 0 ft 222 kts 20°
2026-05-06 09:06 0.18553 32.47690 0 ft 221 kts 350°
2026-05-06 09:07 0.19801 32.47088 0 ft 221 kts 321°
2026-05-06 09:07 0.20718 32.46005 0 ft 219 kts 297°
2026-05-06 09:07 0.21350 32.44733 0 ft 218 kts 289°
2026-05-06 09:07 0.21626 32.43361 0 ft 218 kts 275°
2026-05-06 09:08 0.21379 32.42030 0 ft 217 kts 237°
2026-05-06 09:08 0.20320 32.41180 0 ft 217 kts 196°
2026-05-06 09:08 0.19012 32.41171 0 ft 209 kts 169°
2026-05-06 09:08 0.17820 32.41451 0 ft 164 kts 165°
2026-05-06 09:09 0.16814 32.41737 0 ft 160 kts 164°
2026-05-06 09:09 0.15770 32.42032 0 ft 163 kts 165°
2026-05-06 09:09 0.14695 32.42310 0 ft 165 kts 168°
2026-05-06 09:09 0.13604 32.42517 0 ft 165 kts 171°
2026-05-06 09:10 0.12599 32.42669 0 ft 163 kts 172°
2026-05-06 09:10 0.11757 32.42786 0 ft 162 kts 173°
2026-05-06 09:10 0.10757 32.42918 0 ft 162 kts 173°
2026-05-06 09:10 0.09748 32.43051 0 ft 161 kts 173°
2026-05-06 09:11 0.08834 32.43172 0 ft 161 kts 173°
2026-05-06 09:11 0.07913 32.43296 0 ft 160 kts 173°
2026-05-06 09:11 0.07220 32.43391 0 ft 160 kts 173°
2026-05-06 09:11 0.06489 32.43491 0 ft 160 kts 172°
2026-05-06 09:12 0.05840 32.43581 0 ft 159 kts 173°
2026-05-06 09:12 0.05051 32.43691 0 ft 156 kts 173°
2026-05-06 09:12 0.04293 32.43791 0 ft 152 kts 173°
2026-05-06 09:12 0.03578 32.43889 0 ft 168 kts 170°
2026-05-06 09:13 0.02918 32.44149 0 ft 176 kts 142°
2026-05-06 09:13 0.02568 32.44555 0 ft 181 kts 118°
2026-05-06 09:13 0.02404 32.45083 0 ft 184 kts 98°
2026-05-06 09:13 0.02354 32.45638 0 ft 185 kts 96°
2026-05-06 09:14 0.02261 32.46195 0 ft 187 kts 101°
2026-05-06 09:14 0.02185 32.46799 0 ft 188 kts 89°
2026-05-06 09:14 0.02317 32.47418 0 ft 190 kts 64°
2026-05-06 09:14 0.02600 32.47850 0 ft 201 kts 46°
2026-05-06 09:15 0.03075 32.48217 0 ft 220 kts 25°
2026-05-06 09:15 0.03652 32.48412 0 ft 228 kts
2026-05-06 09:15 0.04572 32.48408 0 ft 234 kts 352°
2026-05-06 09:15 0.05838 32.48391 0 ft 246 kts
2026-05-06 09:16 0.07244 32.48595 0 ft 246 kts
2026-05-06 09:16 0.08570 32.48838 0 ft 227 kts 10°
2026-05-06 09:16 0.09850 32.49086 0 ft 221 kts 10°
2026-05-06 09:16 0.11150 32.49346 0 ft 221 kts 11°
2026-05-06 09:17 0.12537 32.49627 0 ft 221 kts 11°
2026-05-06 09:17 0.13873 32.49901 0 ft 212 kts 11°
2026-05-06 09:17 0.15093 32.50152 0 ft 195 kts 11°
2026-05-06 09:17 0.16225 32.50386 0 ft 196 kts 11°
2026-05-06 09:18 0.17385 32.50608 0 ft 199 kts
2026-05-06 09:18 0.18546 32.50322 0 ft 196 kts 320°
2026-05-06 09:18 0.19198 32.49463 0 ft 198 kts 295°
2026-05-06 09:18 0.19713 32.48317 0 ft 193 kts 291°
2026-05-06 09:19 0.20131 32.47283 0 ft 180 kts 290°
2026-05-06 09:19 0.20526 32.46261 0 ft 182 kts 289°
2026-05-06 09:19 0.20918 32.45215 0 ft 184 kts 289°
2026-05-06 09:19 0.21319 32.44129 0 ft 183 kts 289°
2026-05-06 09:20 0.21706 32.43062 0 ft 184 kts 289°
2026-05-06 09:20 0.22067 32.42067 0 ft 184 kts 289°
2026-05-06 09:20 0.22373 32.41081 0 ft 183 kts 274°
2026-05-06 09:20 0.22081 32.40052 0 ft 183 kts 227°
2026-05-06 09:21 0.21168 32.39565 0 ft 184 kts 185°
2026-05-06 09:21 0.20162 32.39661 0 ft 175 kts 153°
2026-05-06 09:21 0.19360 32.40247 0 ft 162 kts 139°
2026-05-06 09:21 0.18647 32.40879 0 ft 162 kts 141°
2026-05-06 09:22 0.17807 32.41414 0 ft 158 kts 154°
2026-05-06 09:22 0.16828 32.41821 0 ft 161 kts 161°
2026-05-06 09:22 0.15834 32.42125 0 ft 162 kts 166°
2026-05-06 09:22 0.14796 32.42343 0 ft 161 kts 170°
2026-05-06 09:23 0.13819 32.42499 0 ft 148 kts 172°
2026-05-06 09:23 0.12837 32.42636 0 ft 156 kts 173°
2026-05-06 09:23 0.11915 32.42757 0 ft 148 kts 173°
2026-05-06 09:23 0.11023 32.42874 0 ft 148 kts 173°
2026-05-06 09:24 0.10127 32.42992 0 ft 146 kts 173°
2026-05-06 09:24 0.09278 32.43106 0 ft 143 kts 173°
2026-05-06 09:24 0.08536 32.43207 0 ft 145 kts 173°
2026-05-06 09:24 0.07972 32.43284 0 ft 144 kts 173°
2026-05-06 09:25 0.07497 32.43349 0 ft 144 kts 173°
2026-05-06 09:25 0.07040 32.43411 0 ft 147 kts 173°
2026-05-06 09:25 0.06820 32.43441 0 ft 0 kts 173°